Tracking 21094 objects as of 12-Aug-2020
HD Live streaming from Space Station
objects crossing your sky now
Track the most recent launched group of Starlink satellites

GLOBALSTAR M094

Track GLOBALSTAR M094 now!
10-day predictions
GLOBALSTAR M094 is classified as:


NORAD ID: 39074
Int'l Code: 2013-005C
Perigee: 1,420.5 km
Apogee: 1,421.0 km
Inclination: 52.0 °
Period: 114.1 minutes
Semi major axis: 7791 km
RCS: 3.814 m2 (large)
Launch date: February 6, 2013
Source: Globalstar (GLOB)
Launch site: TYURATAM MISSILE AND SPACE COMPLEX (TTMTR)

GLOBALSTAR M094 is part of Globalstar's second-generation satellite fleet, which began launching in 2010.
aabbcc
Your satellite tracking list
Your tracking list is empty




NASA's NSSDC Master Catalog

Two Line Element Set (TLE):
1 39074U 13005C   20224.85971521 -.00000094 +00000-0 +51849-4 0  9995
2 39074 051.9946 172.2539 0000358 012.6523 347.4352 12.62265267348803
Source of the keplerian elements: AFSPC